DELTA 1 DEB

Satellite information

Favourite Embed

Satellite Type and Status

DEBRISIN ORBIT

Key statistics

Satellite DELTA 1 DEB at a glance.

Uptime

17451

Days in orbit

Revolutions

≈ 14.3

Per day

Orbit

SSO

Sun Synchronous Orbit

Inclination

98.8

Latest

Satellite identification and parameters

Extended collection of information and parameters for DELTA 1 DEB.

Object identification

Identified? True

Debris? True

Object name: DELTA 1 DEB

International designator: 1978-026CT

Object number (NORAD): 12250

Object ID (CCSDS): 12250

Country: UNITED STATES OF AMERICA (US)

Current information (Y/N): Y

RCS size: SMALL

Orbital parameters

Period: 100.692 minutes

Inclination: 98.8151 deg

SMA: 7169.542 km

Apoapsis: 807.159 km

Periapsis: 775.655 km

RAAN: 14.6696 deg

Eccentricy: 0.00219707

Argument of periapsis: 259.7679 deg

Mean anomaly: 227.2763 deg

Mean motion: 14.30097406 rev/day

Mean motion (dot): 0.00001365 rev/day2

B* drag term: 0.00054440713 1/REarth

Two-line elements (TLE)

Creation date: Dec. 14, 2025, 3:07 a.m.

Reference frame: TEME

Reference center: EARTH

Epoch: Dec. 13, 2025, 4:17 p.m. UTC

TLE line 0: 0 DELTA 1 DEB

TLE line 1: 1 12250U 78026CT 25347.67855109 .00001365 00000-0 54441-3 0 9991

TLE line 2: 2 12250 98.8151 14.6696 0021971 259.7679 227.2763 14.30097406321392

Live tracking on map

Real-time ground track for satellite DELTA 1 DEB.

In-orbit conjunctions

A list of the most updated potential collisions computed for object DELTA 1 DEB.

Target Orbit TCA Probability of collision Miss distance Type
RESURS O1 DEB SSO 2024-11-19 11:57:12 0.0001500713 97.0 (m) DEBRIS

Associated space launch

Earth observation satellite

DELTA 1 DEB was lifted into orbit during the mission ‘Delta 2910 | Landsat 3’, on board a Delta 2910 space rocket.

The launch took place on March 5, 1978, 5:54 p.m. from Space Launch Complex 2W.

For more information about the launch, click the button.

Launch to space Delta 2910 | Landsat 3
Delta 2910 | Landsat 3

Agency: N/A

Status: Launch Successful

Launch date: March 5, 1978, 5:54 p.m. UTC

Rocket: Delta 2910

Launch pad: Space Launch Complex 2W

Location: Vandenberg SFB, CA, USA

...

Latest news about this satellite

There are no fresh news available about this satellite. Check back as we update our databases every day.


Newsletter sign-up

Weekly statistics, charts and insights to help you stay on top of the space industry.